Date String (YYYY-MM-DD hh:mm:ss) UTC,Instrument flags,absolute air pressure of the measurement (hPa),sample flow rate (lpm),inlet stack bypass flow (lpm),air temperature of the measurement (°C),ambient temperature measured by the external sensor (°C),aerosol sample conditioner tube jacket temperature (°C),OPC LED temperature (°C),internal box temperature (°C),relative humidity of the measurement (%),span deviation,mass concentration of particles derived from Lorenz-Mie calculation of OPC scattering (μg/m³),mass concentration of particles derived from Lorenz-Mie calculation of OPC scattering (μg/m³),mass concentration of particles derived from Lorenz-Mie calculation of OPC scattering (μg/m³)
DateTimeUTC,F1_M11,P_M11,Q1_M11,Q2_M11,T1_M11,T2_M11,T3_M11,T4_M11,T5_M11,U1_M11,ZSPAN_M11,X0_M11,X2_M11,X1_M11
2024-05-27 09:00:00,SystemResetWarning,0830.4,5.01,000.00,029.8,028.9,000.0,038.1,031.4,012.2,0000.0,0007.68,0003.23,0002.59
2024-05-27 09:01:00,SystemResetWarning,0830.3,5.00,000.00,029.8,028.9,000.0,038.1,031.4,012.2,0000.0,0007.92,0003.25,0002.59
2024-05-27 09:02:00,SystemResetWarning,0830.4,5.00,000.00,029.8,028.9,000.0,038.1,031.4,012.2,0000.0,0007.39,0003.25,0002.59
2024-05-27 09:03:00,SystemResetWarning,0830.4,5.00,000.00,029.8,028.9,000.0,038.1,031.4,012.2,0000.0,0007.56,0003.27,0002.60
2024-05-27 09:04:00,SystemResetWarning,0830.4,5.00,000.00,029.8,028.9,000.0,038.1,031.4,012.2,0000.0,0007.79,0003.32,0002.61
2024-05-27 09:05:00,SystemResetWarning,0830.5,5.00,000.00,029.8,028.9,000.0,038.1,031.4,012.3,0000.0,0007.82,0003.32,0002.63
2024-05-27 09:06:00,SystemResetWarning,0830.4,5.00,000.00,029.8,028.9,000.0,038.1,031.4,012.2,0000.0,0007.44,0003.32,0002.62
2024-05-27 09:07:00,SystemResetWarning,0830.4,5.00,000.00,029.8,028.9,000.0,038.1,031.4,012.3,0000.0,0007.52,0003.31,0002.62
2024-05-27 09:08:00,SystemResetWarning,0830.4,5.00,000.00,029.8,028.9,000.0,038.1,031.4,012.3,0000.0,0007.70,0003.32,0002.61
2024-05-27 09:09:00,SystemResetWarning,0830.4,5.00,000.00,029.8,028.9,000.0,038.1,031.3,012.3,0000.0,0007.50,0003.30,0002.61
2024-05-27 09:10:00,SystemResetWarning,0830.4,5.00,000.00,029.7,028.9,000.0,038.1,031.3,012.4,0000.0,0007.77,0003.32,0002.60
2024-05-27 09:11:00,SystemResetWarning,0830.4,5.00,000.00,029.7,028.9,000.0,038.1,031.3,012.3,0000.0,0008.16,0003.32,0002.60
2024-05-27 09:12:00,SystemResetWarning,0830.4,5.00,000.00,029.7,028.9,000.0,038.1,031.3,012.4,0000.0,0007.71,0003.30,0002.58
2024-05-27 09:13:00,SystemResetWarning,0830.4,5.00,000.00,029.7,028.9,000.0,038.1,031.3,012.3,0000.0,0007.67,0003.29,0002.57
2024-05-27 09:14:00,SystemResetWarning,0830.4,5.00,000.00,029.7,028.9,000.0,038.1,031.4,012.3,0000.0,0007.65,0003.27,0002.57
2024-05-27 09:15:00,SystemResetWarning,0830.4,5.00,000.00,029.7,028.9,000.0,038.1,031.3,012.3,0000.0,0007.48,0003.22,0002.56
2024-05-27 09:16:00,SystemResetWarning,0830.5,5.00,000.00,029.7,028.9,000.0,038.1,031.3,012.4,0000.0,0007.38,0003.19,0002.55
2024-05-27 09:17:00,SystemResetWarning,0830.4,5.00,000.00,029.7,028.9,000.0,038.1,031.3,012.5,0000.0,0007.39,0003.19,0002.56
2024-05-27 09:18:00,SystemResetWarning,0830.4,5.00,000.00,029.7,028.9,000.0,038.0,031.3,012.5,0000.0,0007.31,0003.19,0002.56
2024-05-27 09:19:00,SystemResetWarning,0830.4,5.01,000.00,029.7,028.9,000.0,038.1,031.3,012.6,0000.0,0006.94,0003.20,0002.56
2024-05-27 09:20:00,SystemResetWarning,0830.4,5.01,000.00,029.7,028.9,000.0,038.0,031.4,012.6,0000.0,0006.96,0003.21,0002.58
2024-05-27 09:21:00,SystemResetWarning,0830.4,5.00,000.00,029.7,028.8,000.0,038.0,031.3,012.6,0000.0,0007.13,0003.19,0002.59
2024-05-27 09:22:00,SystemResetWarning,0830.4,5.00,000.00,029.7,028.8,000.0,038.0,031.3,012.6,0000.0,0006.10,0003.20,0002.59
2024-05-27 09:23:00,SystemResetWarning,0830.5,4.99,000.00,029.7,028.8,000.0,038.0,031.3,012.5,0000.0,0006.12,0003.20,0002.60
2024-05-27 09:24:00,SystemResetWarning,0830.4,5.00,000.00,029.7,028.8,000.0,038.0,031.3,012.6,0000.0,0006.32,0003.22,0002.59
2024-05-27 09:25:00,SystemResetWarning,0830.5,5.00,000.00,029.7,028.8,000.0,038.0,031.3,012.6,0000.0,0006.36,0003.27,0002.59
2024-05-27 09:26:00,SystemResetWarning,0830.5,5.00,000.00,029.7,028.8,000.0,038.0,031.3,012.5,0000.0,0006.34,0003.29,0002.59
2024-05-27 09:27:00,SystemResetWarning,0830.5,5.01,000.00,029.7,028.8,000.0,038.0,031.3,012.6,0000.0,0006.55,0003.35,0002.60
2024-05-27 09:28:00,SystemResetWarning,0830.6,5.00,000.00,029.7,028.8,000.0,038.0,031.3,012.6,0000.0,0006.46,0003.35,0002.59
2024-05-27 09:29:00,SystemResetWarning,0830.6,4.99,000.00,029.7,028.8,000.0,038.0,031.3,012.5,0000.0,0006.76,0003.35,0002.61
2024-05-27 09:30:00,SystemResetWarning,0830.5,5.00,000.00,029.7,028.8,000.0,038.0,031.3,012.6,0000.0,0007.11,0003.34,0002.63
2024-05-27 09:31:00,SystemResetWarning,0830.6,4.99,000.00,029.7,028.8,000.0,038.0,031.3,012.5,0000.0,0007.28,0003.35,0002.64
2024-05-27 09:32:00,SystemResetWarning,0830.6,5.00,000.00,029.7,028.8,000.0,038.0,031.3,012.6,0000.0,0007.07,0003.35,0002.64
2024-05-27 09:33:00,SystemResetWarning,0830.7,4.99,000.00,029.7,028.8,000.0,038.0,031.3,012.6,0000.0,0006.72,0003.39,0002.66
2024-05-27 09:34:00,SystemResetWarning,0830.8,5.00,000.00,029.7,028.8,000.0,038.0,031.3,012.8,0000.0,0006.64,0003.39,0002.67
2024-05-27 09:35:00,SystemResetWarning,0830.8,5.00,000.00,029.7,028.8,000.0,038.0,031.3,012.8,0000.0,0007.28,0003.37,0002.70
2024-05-27 09:36:00,SystemResetWarning,0830.8,5.01,000.00,029.7,028.8,000.0,038.0,031.3,012.8,0000.0,0007.32,0003.36,0002.70
2024-05-27 09:37:00,SystemResetWarning,0830.9,5.01,000.00,029.7,028.8,000.0,038.0,031.3,012.7,0000.0,0007.28,0003.35,0002.71
2024-05-27 09:38:00,SystemResetWarning,0830.8,5.00,000.00,029.7,028.8,000.0,038.0,031.3,012.7,0000.0,0007.23,0003.32,0002.72
2024-05-27 09:39:00,SystemResetWarning,0830.8,5.00,000.00,029.7,028.9,000.0,038.0,031.3,012.7,0000.0,0007.42,0003.36,0002.72
2024-05-27 09:40:00,SystemResetWarning,0830.8,5.00,000.00,029.7,028.9,000.0,038.0,031.3,012.7,0000.0,0007.54,0003.38,0002.73
2024-05-27 09:41:00,SystemResetWarning,0830.8,5.00,000.00,029.7,028.9,000.0,038.0,031.3,012.5,0000.0,0007.99,0003.40,0002.73
2024-05-27 09:42:00,SystemResetWarning,0830.7,5.00,000.00,029.7,028.9,000.0,038.0,031.3,012.5,0000.0,0007.88,0003.38,0002.72
2024-05-27 09:43:00,SystemResetWarning,0830.8,5.00,000.00,029.7,028.9,000.0,038.0,031.4,012.5,0000.0,0007.88,0003.37,0002.71
2024-05-27 09:44:00,SystemResetWarning,0830.8,5.00,000.00,029.7,028.9,000.0,038.0,031.4,012.5,0000.0,0008.44,0003.38,0002.69
2024-05-27 09:45:00,SystemResetWarning,0830.8,4.99,000.00,029.7,028.9,000.0,038.0,031.4,012.6,0000.0,0008.56,0003.38,0002.68
2024-05-27 09:46:00,SystemResetWarning,0830.8,5.00,000.00,029.7,028.9,000.0,038.0,031.4,012.5,0000.0,0008.31,0003.38,0002.66
2024-05-27 09:47:00,SystemResetWarning,0830.8,5.01,000.00,029.7,028.9,000.0,038.0,031.4,012.5,0000.0,0009.18,0003.34,0002.63
2024-05-27 09:48:00,SystemResetWarning,0830.8,5.00,000.00,029.7,028.9,000.0,038.0,031.4,012.6,0000.0,0010.05,0003.32,0002.61
2024-05-27 09:49:00,SystemResetWarning,0830.8,5.01,000.00,029.7,028.9,000.0,038.0,031.4,012.4,0000.0,0010.34,0003.31,0002.60
2024-05-27 09:50:00,SystemResetWarning,0830.8,5.00,000.00,029.7,028.9,000.0,038.0,031.4,012.5,0000.0,0010.24,0003.28,0002.59
2024-05-27 09:51:00,SystemResetWarning,0830.9,5.00,000.00,029.7,028.9,000.0,038.0,031.4,012.5,0000.0,0009.97,0003.24,0002.56
2024-05-27 09:52:00,SystemResetWarning,0830.8,4.99,000.00,029.7,028.9,000.0,038.1,031.4,012.5,0000.0,0009.31,0003.22,0002.53
2024-05-27 09:53:00,SystemResetWarning,0830.8,5.01,000.00,029.7,028.9,000.0,038.1,031.4,012.4,0000.0,0009.22,0003.21,0002.50
2024-05-27 09:54:00,SystemResetWarning,0830.8,5.01,000.00,029.7,028.9,000.0,038.1,031.4,012.5,0000.0,0009.12,0003.19,0002.48
2024-05-27 09:55:00,SystemResetWarning,0830.8,5.00,000.00,029.7,028.9,000.0,038.1,031.4,012.6,0000.0,0008.58,0003.16,0002.47
2024-05-27 09:56:00,SystemResetWarning,0830.8,4.99,000.00,029.8,028.9,000.0,038.1,031.4,012.5,0000.0,0008.48,0003.15,0002.47
2024-05-27 09:57:00,SystemResetWarning,0830.8,5.00,000.00,029.8,028.9,000.0,038.1,031.4,012.5,0000.0,0008.54,0003.13,0002.47
2024-05-27 09:58:00,SystemResetWarning,0830.9,5.00,000.00,029.8,028.9,000.0,038.1,031.5,012.5,0000.0,0007.83,0003.15,0002.47
2024-05-27 09:59:00,SystemResetWarning,0830.9,5.01,000.00,029.8,028.9,000.0,038.1,031.4,012.5,0000.0,0007.12,0003.16,0002.48
